Regional Weather Roundup
Issued by NWS

Home | Current Version | Previous Version | Text Only | Print | Product List | Glossary Off
Versions: 1 2 3 4 5 6 7 8 9 10 11 12 13 14 15 16 17 18 19 20 21 22 23 24 25 26 27 28 29 30 31 32 33 34 35 36 37 38 39 40 41 42 43 44 45 46 47 48 49 50

000
ASUS44 KMEG 061910
RWRTN
TENNESSEE HOURLY STATE WEATHER ROUNDUP
NATIONAL WEATHER SERVICE MEMPHIS TN
200 PM CDT WED MAY 06 2015

TNZ002-004-019-021-049-052-054-088>092-062000-
WEST TENNESSEE

CITY           SKY/WX    TMP DP  RH WIND       PRES   REMARKS
MEMPHIS INTL   PTSUNNY   85  53  33 S10       30.10F
NWS MEMPHIS      N/A     83 N/A N/A MISG        N/A
JACKSON        MOSUNNY   84  54  35 SE9       30.11F
PARIS          MOSUNNY   81  55  41 S10       30.13F
LEXINGTON      SUNNY     82  50  32 VRB5      30.12F
$$

TNZ008-025-027-028-033-062-065-066-062000-
NORTH MIDDLE TENNESSEE

CITY           SKY/WX    TMP DP  RH WIND       PRES   REMARKS
NASHVILLE      MOSUNNY   85  55  35 E3        30.15F
CLARKSVILLE    MOSUNNY   81  57  43 S5        30.14F
SMYRNA         MOSUNNY   81  55  40 W5        30.15F
COOKEVILLE     MOSUNNY   84  57  39 VRB3      30.15F
CROSSVILLE     CLOUDY    78  52  40 VRB3      30.19F
$$

TNZ061-075-076-078-094-096-097-062000-
SOUTH MIDDLE TENNESSEE

CITY           SKY/WX    TMP DP  RH WIND       PRES   REMARKS
FAYETTEVILLE     N/A     79  48  34 VRB5      30.15F
TULLAHOMA      MOSUNNY   81  48  32 CALM      30.16F
WINCHESTER     SUNNY     82  54  36 SE9       30.16F
MCMINNVILLE    SUNNY     82  55  39 NE7       30.16F
COLUMBIA       MOSUNNY   82  55  39 E7        30.13F
SHELBYVILLE    MOSUNNY   84  55  37 CALM      30.16F
$$

TNZ017-018-042-046-047-062000-
NORTHEAST TENNESSEE

CITY           SKY/WX    TMP DP  RH WIND       PRES   REMARKS
TRI CITIES     MOSUNNY   84  51  31 CALM      30.16F
$$

TNZ012-013-036-069-073-074-062000-
CENTRAL EAST TENNESSEE

CITY           SKY/WX    TMP DP  RH WIND       PRES   REMARKS
KNOXVILLE      MOSUNNY   83  53  35 VRB5      30.14F
OAK RIDGE      SUNNY     85  55  35 CALM      30.16F
GATLINBURG     CLEAR     82  52  34 N8        30.13F
MORRISTOWN     CLEAR     82  57  42 N6        30.17F
$$

TNZ083-085-099-062000-
SOUTHEAST TENNESSEE

CITY           SKY/WX    TMP DP  RH WIND       PRES   REMARKS
CHATTANOOGA    MOSUNNY   82  52  35 CALM      30.15F
$$

SKY/WX REPORTED AS FAIR MEANS FEW OR NO CLOUDS BELOW
12 THOUSAND FEET.



USA.gov is the U.S. government's official web portal to all federal, state and local government web resources and services.